This demonstration page uses our WeatherBlox Daily Observations layout. Learn more.

Left ArrowRight Arrow

53.62937, 11.41316

Hourly Observations for January 8, 2018

Temp ( °F °C ) Dew Point ( °F °C ) Humidity (%) Winds ( mph kmh ) Pressure ( in mb ) Visibility ( mi km ) Precip ( " mm )
7:50 am 07:50 Mostly Clear 16 -9 14 -10 93 93 ENE 5 7 30.59 1036 7 11 N/A
8:20 am 08:20 Mostly Clear 19 -7 18 -8 93 93 VRB 2 4 30.59 1036 7 11 N/A
8:50 am 08:50 Mostly Sunny 16 -9 12 -11 86 86 NE 5 7 30.59 1036 7 11 N/A
9:20 am 09:20 Mostly Sunny 16 -9 12 -11 86 86 NE 3 6 30.59 1036 7 11 N/A
9:50 am 09:50 Mostly Sunny 19 -7 19 -7 100 100 NE 3 6 30.59 1036 7 11 N/A
10:20 am 10:20 Mostly Sunny 25 -4 25 -4 100 100 VRB 1 2 30.59 1036 7 11 N/A
10:50 am 10:50 Mostly Sunny 27 -3 27 -3 100 100 E 6 9 30.59 1036 7 11 N/A
11:20 am 11:20 Mostly Sunny 28 -2 25 -4 86 86 ENE 7 11 30.59 1036 7 11 N/A
12:20 pm 12:20 Mostly Sunny 32 0 25 -4 75 75 ENE 7 11 30.56 1035 7 11 N/A
12:50 pm 12:50 Mostly Sunny 32 0 25 -4 75 75 ENE 9 15 30.56 1035 7 11 N/A
1:20 pm 13:20 Mostly Sunny 32 0 23 -5 69 69 ENE 9 15 30.56 1035 7 11 N/A
1:50 pm 13:50 Mostly Sunny 34 1 21 -6 60 60 E 9 15 30.53 1034 7 11 N/A
2:20 pm 14:20 Mostly Sunny 34 1 21 -6 60 60 ENE 9 15 30.53 1034 7 11 N/A
2:50 pm 14:50 Mostly Sunny 34 1 18 -8 51 51 E 12 19 30.53 1034 7 11 N/A
3:20 pm 15:20 Mostly Sunny 34 1 18 -8 51 51 E 10 17 30.53 1034 7 11 N/A
3:50 pm 15:50 Mostly Sunny 32 0 19 -7 60 60 ENE 10 17 30.53 1034 7 11 N/A
4:20 pm 16:20 Mostly Clear 30 -1 19 -7 64 64 ENE 9 15 30.53 1034 7 11 N/A
4:50 pm 16:50 Mostly Clear 28 -2 18 -8 64 64 ENE 8 13 30.53 1034 7 11 N/A
5:20 pm 17:20 Mostly Clear 30 -1 19 -7 64 64 ENE 9 15 30.53 1034 7 11 N/A
5:50 pm 17:50 Mostly Clear 30 -1 18 -8 59 59 ENE 10 17 30.53 1034 7 11 N/A

Powered by AerisWeather